sat.trackr.live / text

‹ back to catalog

STARLINK-3652

NORAD 51991 · 2022-025AM

PAYLOAD ACTIVE UNKNOWN

§ Identity

Operator
Country
US
Launch date
2022-03-09
Launch site
AFETR
Launch vehicle
Mass (kg)
RCS (m²)

Purposes: comms

External: N2YO · Heavens-Above · Gunter

§ Orbital elements

Epoch: 2026-05-25T01:52:57.666144Z

Period
95.44 min
Inclination
53.2136°
Eccentricity
0.0001232
Mean motion
15.08843636 rev/d
Perigee alt
538.9 km
Apogee alt
540.6 km
Semi-major
6,917.9 km
B*
2.8719e-5
RAAN
56.1971°
Arg perigee
80.8465°
Mean anomaly
279.2666°
Rev number
23,259

§ Raw data

STARLINK-36521 51991U 22025AM  26145.07844521  .00000169  00000+0  28719-4 0  99912 51991  53.2136  56.1971 0001232  80.8465 279.2666 15.08843636232598

JSON: /api/v1/satellites/51991 · /tle

For live sub-satellite position, see the globe view (requires WebGL).

§ Visibility from observer

Set your observer location to see the next 7 days of passes ≥ 10°. The values pass through the URL so the page stays shareable.

No JS? Fill the form by hand. The geolocation button needs JavaScript.